Погода в Миннеаполисе

США     44°58′13″N   93°16′04″W
темп.,
°C
ветер,
м/с
пор.,
м/с
влажн.,
%
обл.,
%
осадки,
мм/ч
давл.,
гПа
погр.,
м
16 октября, сб
сб1601:00+8з310615 0.0 1015502
04:00+7зсз411590 0.0 1016423
07:00+6з412570 0.0 1017407
10:00+9зсз510440 0.0 1018487
13:00+15зсз510270 0.0 10171755
16:00+16зсз59240 0.0 10162011
19:00+14зсз39350 0.0 1017665
22:00+12зсз39470 0.0 1018366
17 октября, вс
вс1701:00+10зсз27550 0.0 1019247
04:00+9з26575 0.0 1019197
07:00+8з255699 0.0 1020145
10:00+11зюз24487 0.0 1020268
13:00+17зюз35320 0.0 1019770
16:00+20зюз34250 0.0 10161233
19:00+17ююз22320 0.0 101633
22:00+15ююз24400 0.0 1016110
18 октября, пн
пн1801:00+13ю25470 0.0 1016121
04:00+12ю25535 0.0 1016125
07:00+12ююв26545 0.0 1016147
10:00+15ю37405 0.0 1015270
13:00+22ю47270 0.0 1013958
16:00+24ю47220 0.0 10111442
19:00+20ююв310310 0.0 1011394
22:00+18ю413370 0.0 1012536
19 октября, вт
вт1901:00+16ю41343100 0.0 1012513
04:00+14ююв31154100 0.0 1012425
07:00+14ю3105772 0.0 1011437
10:00+16ю48500 0.0 1011463
13:00+21ююз35350 0.0 10101047
16:00+23ююз35325 0.0 10091416
19:00+20ююз1141100 0.0 101012
22:00+18юв234968 0.0 101174
20 октября, ср
ср2001:00+16ююв266069 0.0 1011165
04:00+15вюв247072 0.0 1011124
07:00+14юв2677100 0.0 1011201
10:00+16вюв247530 0.2 1011357
13:00+19вюв246277 0.4 10101145
16:00+20всв2450100 0.6 10071177
19:00+15с377173 3.3 1009500
22:00+11ссв5984100 0.3 1011586